When you browse on this site, cookies collect data to enhance your experience and personalize the content and advertising you see.
Visit our Privacy Policy to learn more. By continuing to use the site, you agree to this use of cookies and data.
  • en France
  • Liste des pays
  • À 7 jours
  • Température de l'eau
  • Carte météo
  • Widgets météo
  • user-avatar
    Se connecter

    Météo par heure à Newcastle

    Ce jour, 27 Mai, Mercredi

    Heure Température Précipitation Vent Pression Humidité
    00:00 +12°C° 0.1 mm 4 m/s 765 mmHg 94%
    01:00 +12°C° 0.1 mm 3 m/s 765 mmHg 94%
    02:00 +12°C° 0.1 mm 3 m/s 765 mmHg 94%
    03:00 +12°C° 0.1 mm 3 m/s 765 mmHg 94%
    04:00 +11°C° 0 mm 3 m/s 765 mmHg 95%
    05:00 +11°C° 0.1 mm 3 m/s 765 mmHg 95%
    06:00 +11°C° 0.1 mm 3 m/s 765 mmHg 95%
    07:00 +11°C° 0.1 mm 3 m/s 766 mmHg 95%
    08:00 +13°C° 0 mm 3 m/s 765 mmHg 89%
    09:00 +16°C° 0 mm 3 m/s 765 mmHg 83%
    10:00 +18°C° 0 mm 2 m/s 765 mmHg 76%
    11:00 +18°C° 0.1 mm 3 m/s 765 mmHg 76%
    12:00 +19°C° 0.1 mm 3 m/s 764 mmHg 75%
    13:00 +20°C° 0.1 mm 3 m/s 763 mmHg 75%
    14:00 +19°C° 0.1 mm 3 m/s 763 mmHg 78%
    15:00 +19°C° 0.1 mm 3 m/s 763 mmHg 81%
    16:00 +18°C° 0 mm 3 m/s 763 mmHg 86%
    17:00 +17°C° 0 mm 3 m/s 764 mmHg 89%
    18:00 +16°C° 0 mm 2 m/s 764 mmHg 91%
    19:00 +15°C° 0 mm 2 m/s 764 mmHg 94%
    20:00 +14°C° 0 mm 1 m/s 764 mmHg 94%
    21:00 +14°C° 0 mm 1 m/s 764 mmHg 94%
    22:00 +14°C° 0 mm 1 m/s 764 mmHg 95%
    23:00 +13°C° 0 mm 1 m/s 764 mmHg 95%

    Demain, 28 Mai, Jeudi

    Heure Température Précipitation Vent Pression Humidité
    00:00 +13°C° 0 mm 1 m/s 764 mmHg 96%
    01:00 +13°C° 0 mm 2 m/s 764 mmHg 96%
    02:00 +13°C° 0 mm 2 m/s 764 mmHg 96%
    03:00 +12°C° 0 mm 2 m/s 764 mmHg 97%
    04:00 +12°C° 0 mm 2 m/s 764 mmHg 97%
    05:00 +12°C° 0 mm 2 m/s 764 mmHg 97%
    06:00 +12°C° 0 mm 2 m/s 765 mmHg 97%
    07:00 +12°C° 0 mm 2 m/s 765 mmHg 97%
    08:00 +14°C° 0 mm 2 m/s 765 mmHg 91%
    09:00 +15°C° 0 mm 2 m/s 765 mmHg 85%
    10:00 +17°C° 0 mm 2 m/s 765 mmHg 79%
    11:00 +19°C° 0 mm 2 m/s 764 mmHg 72%
    12:00 +21°C° 0 mm 1 m/s 764 mmHg 64%
    13:00 +23°C° 0 mm 1 m/s 763 mmHg 57%
    14:00 +22°C° 0 mm 1 m/s 763 mmHg 60%
    15:00 +21°C° 0 mm 1 m/s 764 mmHg 64%
    16:00 +21°C° 0 mm 1 m/s 764 mmHg 68%
    17:00 +19°C° 0 mm 1 m/s 764 mmHg 73%
    18:00 +16°C° 0 mm 1 m/s 765 mmHg 79%
    19:00 +14°C° 0 mm 0 m/s 765 mmHg 84%
    20:00 +13°C° 0.1 mm 0 m/s 766 mmHg 85%
    21:00 +14°C° 0.1 mm 1 m/s 766 mmHg 85%
    22:00 +14°C° 0.1 mm 1 m/s 767 mmHg 86%
    23:00 +14°C° 0.1 mm 1 m/s 767 mmHg 88%

    Après-demain, 29 Mai, Vendredi

    Heure Température Précipitation Vent Pression Humidité
    00:00 +14°C° 0.1 mm 2 m/s 767 mmHg 90%
    01:00 +12°C° 0.1 mm 3 m/s 767 mmHg 92%
    02:00 +12°C° 0.2 mm 3 m/s 767 mmHg 92%
    03:00 +11°C° 0.2 mm 3 m/s 767 mmHg 93%
    04:00 +11°C° 0.2 mm 4 m/s 767 mmHg 94%
    05:00 +11°C° 0.2 mm 3 m/s 768 mmHg 95%
    06:00 +10°C° 0.2 mm 3 m/s 768 mmHg 95%
    07:00 +10°C° 0.2 mm 3 m/s 769 mmHg 96%
    08:00 +12°C° 0.1 mm 3 m/s 769 mmHg 90%
    09:00 +14°C° 0.1 mm 3 m/s 769 mmHg 84%
    10:00 +17°C° 0.1 mm 3 m/s 769 mmHg 78%
    11:00 +18°C° 0.1 mm 3 m/s 769 mmHg 76%
    12:00 +18°C° 0.1 mm 3 m/s 768 mmHg 74%
    13:00 +19°C° 0.1 mm 3 m/s 768 mmHg 72%
    14:00 +19°C° 0.1 mm 3 m/s 768 mmHg 74%
    15:00 +18°C° 0.1 mm 2 m/s 768 mmHg 77%
    16:00 +18°C° 0.1 mm 2 m/s 768 mmHg 80%
    17:00 +17°C° 0 mm 2 m/s 769 mmHg 83%
    18:00 +15°C° 0 mm 2 m/s 769 mmHg 86%
    19:00 +14°C° 0 mm 1 m/s 769 mmHg 89%
    20:00 +14°C° 0 mm 1 m/s 770 mmHg 90%
    21:00 +13°C° 0 mm 1 m/s 770 mmHg 90%
    22:00 +13°C° 0 mm 1 m/s 770 mmHg 91%
    23:00 +13°C° 0 mm 1 m/s 770 mmHg 92%

    30 Mai, Samedi

    Heure Température Précipitation Vent Pression Humidité
    00:00 +12°C° 0 mm 1 m/s 770 mmHg 93%
    01:00 +12°C° 0 mm 1 m/s 769 mmHg 94%
    02:00 +12°C° 0 mm 1 m/s 769 mmHg 94%
    03:00 +12°C° 0 mm 1 m/s 769 mmHg 94%
    04:00 +12°C° 0 mm 1 m/s 770 mmHg 95%
    05:00 +11°C° 0 mm 1 m/s 770 mmHg 95%
    06:00 +11°C° 0 mm 1 m/s 770 mmHg 95%
    07:00 +11°C° 0 mm 1 m/s 770 mmHg 95%
    08:00 +13°C° 0 mm 1 m/s 770 mmHg 88%
    09:00 +15°C° 0 mm 2 m/s 770 mmHg 81%
    10:00 +17°C° 0 mm 2 m/s 770 mmHg 73%
    11:00 +19°C° 0 mm 2 m/s 769 mmHg 68%
    12:00 +20°C° 0 mm 3 m/s 768 mmHg 63%
    13:00 +21°C° 0 mm 3 m/s 767 mmHg 58%
    14:00 +20°C° 0 mm 3 m/s 767 mmHg 62%
    15:00 +20°C° 0 mm 4 m/s 767 mmHg 65%
    16:00 +19°C° 0 mm 4 m/s 766 mmHg 69%
    17:00 +17°C° 0 mm 4 m/s 767 mmHg 76%
    18:00 +15°C° 0 mm 4 m/s 767 mmHg 82%
    19:00 +13°C° 0 mm 4 m/s 767 mmHg 89%
    20:00 +13°C° 0 mm 4 m/s 767 mmHg 90%
    21:00 +12°C° 0 mm 4 m/s 767 mmHg 91%
    22:00 +12°C° 0 mm 4 m/s 767 mmHg 92%
    23:00 +12°C° 0 mm 4 m/s 766 mmHg 93%

    31 Mai, Dimanche

    Heure Température Précipitation Vent Pression Humidité
    00:00 +11°C° 0 mm 3 m/s 766 mmHg 94%
    01:00 +11°C° 0 mm 3 m/s 766 mmHg 95%
    02:00 +11°C° 0 mm 3 m/s 765 mmHg 95%
    03:00 +10°C° 0 mm 3 m/s 765 mmHg 94%
    04:00 +10°C° 0 mm 2 m/s 765 mmHg 94%
    05:00 +10°C° 0 mm 3 m/s 765 mmHg 92%
    06:00 +11°C° 0 mm 3 m/s 765 mmHg 89%
    07:00 +11°C° 0 mm 3 m/s 765 mmHg 87%
    08:00 +13°C° 0 mm 3 m/s 765 mmHg 79%
    09:00 +16°C° 0 mm 3 m/s 765 mmHg 72%
    10:00 +17°C° 0 mm 3 m/s 765 mmHg 64%
    11:00 +19°C° 0 mm 3 m/s 765 mmHg 61%
    12:00 +20°C° 0 mm 3 m/s 764 mmHg 58%
    13:00 +21°C° 0 mm 3 m/s 763 mmHg 54%
    14:00 +20°C° 0 mm 3 m/s 763 mmHg 60%
    15:00 +19°C° 0 mm 3 m/s 763 mmHg 65%
    16:00 +18°C° 0 mm 4 m/s 762 mmHg 70%
    17:00 +17°C° 0 mm 4 m/s 763 mmHg 74%
    18:00 +16°C° 0 mm 3 m/s 763 mmHg 78%
    19:00 +14°C° 0 mm 3 m/s 763 mmHg 83%
    20:00 +14°C° 0 mm 3 m/s 763 mmHg 84%
    21:00 +13°C° 0 mm 3 m/s 763 mmHg 85%
    22:00 +13°C° 0 mm 3 m/s 762 mmHg 87%
    23:00 +13°C° 0 mm 3 m/s 762 mmHg 88%

    1 Juin, Lundi

    Heure Température Précipitation Vent Pression Humidité
    00:00 +12°C° 0 mm 3 m/s 761 mmHg 89%
    01:00 +12°C° 0 mm 3 m/s 761 mmHg 90%
    02:00 +12°C° 0 mm 3 m/s 760 mmHg 90%
    03:00 +12°C° 0 mm 3 m/s 760 mmHg 91%
    04:00 +12°C° 0 mm 4 m/s 759 mmHg 91%
    05:00 +12°C° 0 mm 4 m/s 759 mmHg 90%
    06:00 +11°C° 0 mm 4 m/s 760 mmHg 89%
    07:00 +11°C° 0 mm 4 m/s 760 mmHg 89%
    08:00 +13°C° 0 mm 5 m/s 760 mmHg 78%
    09:00 +15°C° 0 mm 6 m/s 760 mmHg 67%
    10:00 +17°C° 0 mm 7 m/s 759 mmHg 57%
    11:00 +18°C° 0 mm 7 m/s 759 mmHg 51%
    12:00 +20°C° 0 mm 7 m/s 758 mmHg 46%
    13:00 +20°C° 0 mm 7 m/s 758 mmHg 40%
    14:00 +20°C° 0 mm 7 m/s 758 mmHg 43%
    15:00 +19°C° 0 mm 6 m/s 758 mmHg 45%
    16:00 +17°C° 0 mm 5 m/s 758 mmHg 47%
    17:00 +16°C° 0.1 mm 6 m/s 758 mmHg 54%
    18:00 +15°C° 0.1 mm 6 m/s 759 mmHg 61%
    19:00 +14°C° 0.1 mm 6 m/s 759 mmHg 68%
    20:00 +13°C° 0.2 mm 6 m/s 760 mmHg 72%
    21:00 +11°C° 0.2 mm 6 m/s 761 mmHg 76%
    22:00 +10°C° 0.2 mm 6 m/s 761 mmHg 80%
    23:00 +9°C° 0 mm 6 m/s 762 mmHg 78%
    Voir plus